Flag for Poland Weather past 2 weeks in Ruda Śląska, Poland

Now
72 °F

Passing clouds.


Feels Like: 77 °F
Forecast: 54 / 71 °F
Wind: 7 mph from South

Location: Katowice Airport

Current Time: Sep 18, 2014 at 4:02:16 PM

Latest Report: Sep 18, 2014 at 3:30 PM


Visibility: N/A

Pressure: 30.09 "Hg

Humidity: 41%

Dew point: 46 °F

Location of Ruda ŚląskaLocation

Historic Weather in Ruda Śląska — Graph

°F

Ruda Śląska temperature yesterday

Maximum temperature yesterday: 70 °F (at 12:30 PM)
Minimum temperature yesterday: 50 °F (at 1:30 AM)
Average temperature yesterday: 59 °F

Past Weeks' High & Low Weather Summary

 TemperatureHumidityPressure
High79 °F (Sep 8, 3:00 PM)100% (Sep 4, 5:00 AM)30.21 "Hg (Sep 4, 5:00 AM)
Low46 °F (Sep 13, 5:30 AM)41% (Sep 18, 2:30 PM)29.92 "Hg (Sep 6, 4:00 PM)
Average62 °F80%30.05 "Hg
* Reported Sep 3 3:00 PM — Sep 18 3:00 PM, Ruda Śląska, Weather by CustomWeather, © 2014

Note: Actual official high and low records may vary slightly from our data, if they occured in-between our weather recording intervals... More about our weather records

Advertising

Ruda Śląska weather history for previous 24 hours

 ConditionsComfort  
Time TempWeatherWind HumidityBarometerVisibility
3:00 PM
Sep 18
72 °FPassing clouds.8 mph44%30.09 "HgN/A
2:30 PM72 °FPassing clouds.8 mph41%30.09 "HgN/A
2:00 PM72 °FPassing clouds.8 mph44%30.12 "HgN/A
1:30 PM70 °FScattered clouds.7 mph50%30.12 "HgN/A
1:00 PM70 °FScattered clouds.7 mph50%30.12 "HgN/A
12:30 PM70 °FPassing clouds.7 mph53%30.12 "HgN/A
12:00 PM68 °FPassing clouds.7 mph56%30.12 "HgN/A
11:30 AM68 °FPassing clouds.6 mph60%30.12 "HgN/A
11:00 AM66 °FPassing clouds.7 mph64%30.12 "HgN/A
10:30 AM66 °FPassing clouds.6 mph68%30.12 "HgN/A
10:00 AM64 °FPassing clouds.5 mph73%30.12 "HgN/A
9:30 AM63 °FPassing clouds.5 mph77%30.12 "HgN/A
9:00 AM61 °FSunny.6 mph77%30.12 "Hg10 mi
8:30 AM57 °FPassing clouds.3 mph82%30.12 "HgN/A
8:00 AM54 °FClear.3 mph88%30.12 "Hg5 mi
7:30 AM48 °FPassing clouds.2 mph100%30.12 "Hg5 mi
7:00 AM46 °FFog.2 mph93%30.12 "Hg4 mi
6:30 AM48 °FFog.2 mph94%30.12 "Hg4 mi
6:00 AM48 °FFog.2 mph94%30.09 "Hg5 mi
5:30 AM46 °FClear.3 mph100%30.09 "Hg5 mi
5:00 AM48 °FClear.2 mph94%30.09 "Hg10 mi
4:30 AM46 °FClear.2 mph93%30.09 "Hg10 mi
4:00 AM48 °FPassing clouds.3 mph94%30.09 "HgN/A
3:30 AM50 °FPassing clouds.5 mph88%30.09 "HgN/A
3:00 AM52 °FPassing clouds.3 mph82%30.09 "HgN/A
2:30 AM54 °FPassing clouds.3 mph82%30.09 "HgN/A
2:00 AM52 °FClear.3 mph88%30.09 "Hg10 mi
1:30 AM50 °FPassing clouds.3 mph88%30.09 "HgN/A
1:00 AM52 °FClear.2 mph82%30.09 "Hg10 mi
12:30 AM54 °FClear.6 mph77%30.09 "Hg10 mi
12:00 AM54 °FClear.6 mph82%30.12 "Hg10 mi
11:30 PM
Sep 17
52 °FClear.7 mph82%30.12 "Hg10 mi
11:00 PM52 °FClear.7 mph88%30.12 "Hg10 mi
10:30 PM52 °FClear.7 mph88%30.12 "Hg10 mi
10:00 PM54 °FClear.5 mph82%30.12 "Hg10 mi
9:30 PM55 °FClear.5 mph82%30.12 "Hg10 mi
9:00 PM55 °FClear.6 mph82%30.12 "Hg10 mi
8:30 PM57 °FClear.7 mph77%30.12 "Hg10 mi
8:00 PM57 °FClear.7 mph82%30.12 "Hg10 mi
7:30 PM59 °FSunny.8 mph77%30.12 "Hg10 mi
7:00 PM61 °FSunny.7 mph72%30.12 "Hg10 mi
6:30 PM63 °FSunny.6 mph68%30.09 "Hg10 mi
6:00 PM66 °FSunny.7 mph60%30.12 "Hg10 mi
5:30 PM66 °FSunny.7 mph56%30.12 "Hg10 mi
5:00 PM68 °FSunny.9 mph53%30.12 "Hg10 mi
4:30 PM68 °FSunny.10 mph53%30.09 "Hg10 mi
4:00 PM68 °FSunny.12 mph53%30.09 "Hg10 mi
Weather by CustomWeather, © 2014

See weather overviewHow to use our weather pages